Regional Weather Roundup
Issued by NWS Portland, ME

Current Version | Previous Version | Text Only | Print | Product List | Glossary On
Versions: 1 2 3 4 5 6 7 8 9 10 11 12 13 14 15 16 17 18 19 20 21 22 23 24 25 26 27 28 29 30 31 32 33 34 35 36 37 38 39 40 41 42 43 44 45 46 47 48 49 50
000
ASUS41 KGYX 291810
RWRGYX
WEATHER ROUNDUP FOR MAINE AND NEW HAMPSHIRE
NATIONAL WEATHER SERVICE GRAY ME
200 PM EDT FRI MAY 29 2015

MEZ002-005-006-010-012-015-018-020-021-024-026-027-029-291900-
MAINE

CITY           SKY/WX    TMP DP  RH WIND       PRES   REMARKS
PORTLAND       MOSUNNY   74  61  63 S10       30.28F
6HR MIN TEMP:  71; 6HR MAX TEMP:  77;

SANFORD        MOSUNNY   73  55  53 SE7       30.29F
BAR HARBOR     CLOUDY    70  63  78 E10       30.28F
WISCASSET      PTSUNNY   73  60  63 S9        30.29S
6HR MIN TEMP:  68; 6HR MAX TEMP:  76;

ROCKLAND       MOSUNNY   66  59  77 SE7       30.28R
FRYEBURG       CLOUDY    77  56  48 E7        30.26F
6HR MIN TEMP:  67; 6HR MAX TEMP:  79;

LEWISTONAUBURN CLOUDY    75  55  50 S6        30.27F
AUGUSTA        MOSUNNY   76  53  44 SW7       30.27F
6HR MIN TEMP:  66; 6HR MAX TEMP:  76;

WATERVILLE     SUNNY     75  54  46 S5        30.24S
BANGOR         PTSUNNY   75  59  57 CALM      30.27F
6HR MIN TEMP:  63; 6HR MAX TEMP:  76;

GREENVILLE       N/A     72  54  53 E13       30.26F
6HR MIN TEMP:  58; 6HR MAX TEMP:  72;

MILLINOCKET    MOSUNNY   75  55  49 VRB5      30.27F
6HR MIN TEMP:  63; 6HR MAX TEMP:  76;

HOULTON        SUNNY     73  52  47 CALM      30.26F
6HR MIN TEMP:  59; 6HR MAX TEMP:  73;

PRESQUE ISLE   SUNNY     72  45  37 NW3       30.26F
6HR MIN TEMP:  57; 6HR MAX TEMP:  72;

FRENCHVILLE    SUNNY     68  44  42 SE9       30.26F
6HR MIN TEMP:  55; 6HR MAX TEMP:  68;

CARIBOU        SUNNY     71  45  39 VRB7      30.26F
6HR MIN TEMP:  57; 6HR MAX TEMP:  71;

$$

NHZ002-005-008-009-011-012-014-291900-
NEW HAMPSHIRE

CITY           SKY/WX    TMP DP  RH WIND       PRES   REMARKS
PORTSMOUTH     MOSUNNY   72  59  64 E8        30.27F
ROCHESTER      CLOUDY    74  58  57 SE8       30.27F
6HR MIN TEMP:  67; 6HR MAX TEMP:  81;

NASHUA         MOSUNNY   77  60  55 SE8       30.28F
MANCHESTER     PTSUNNY   76  59  55 SE6       30.25F
6HR MIN TEMP:  67; 6HR MAX TEMP:  78;

CONCORD        MOSUNNY   79  57  46 MISG      30.26F
6HR MIN TEMP:  65; 6HR MAX TEMP:  80;

LACONIA        SUNNY     75  55  50 NE8       30.24F
PLYMOUTH       FAIR      78  62  56 E9        30.25F
BERLIN         SUNNY     78  52  40 CALM      30.25F
6HR MIN TEMP:  63; 6HR MAX TEMP:  80;

WHITEFIELD     SUNNY     78  56  46 S5        30.25F
6HR MIN TEMP:  61; 6HR MAX TEMP:  79;

JAFFREY        PTSUNNY   77  56  48 MISG      30.29F
6HR MIN TEMP:  63; 6HR MAX TEMP:  77;

KEENE          MOSUNNY   79  57  47 SW9       30.26F
LEBANON        MOSUNNY   80  57  45 W10       30.25F
6HR MIN TEMP:  63; 6HR MAX TEMP:  80;

MT WASHINGTON  NOT AVBL
$$

VTZ005-007-008-291900-
VERMONT

CITY           SKY/WX    TMP DP  RH WIND       PRES   REMARKS
ST JOHNSBURY     N/A     78  50  37 MISG      30.23
MONTPELIER     SUNNY     76  51  41 SW8       30.30F
BURLINGTON     MOSUNNY   77  55  46 W7        30.25F
$$

MAZ007-012-024-CTZ003-RIZ002-NYZ038-NYZ072-291900-
SOUTHERN NEW ENGLAND AND NY

CITY           SKY/WX    TMP DP  RH WIND       PRES   REMARKS
BOSTON         MOSUNNY   66  59  78 E14       30.31S
WORCESTER      PTSUNNY   77  56  48 E8        30.29F
NANTUCKET      SUNNY     73  57  57 SE12      30.29R
PROVIDENCE     MOSUNNY   81  57  43 S9        30.26F
HARTFORD       PTSUNNY   82  59  45 VRB5      30.25F
ALBANY         PTSUNNY   81  53  37 S5        30.25F
NEW YORK CITY  MOSUNNY   81  54  39 NE8       30.25F
$$

ANZ081-ANZ082-ANZ150-NHZ014-MEZ023>029-291900-
COASTAL MARINE OBSERVATIONS

STATION/POSITION TIME  TEMP    WIND        PRES    WAVE
                       AIR SEA DIR/SP/G            HT/PER
                 (UTC) (F)     (DEG/KT/KT) (MB)    (FT/S)
MOUNT DESERT ROC 1800   57      50/  5/  5   N/A
MATINICUS ROCK   1800   63     120/  6/  7   N/A
ISLE OF SHOALS   1800   60     120/  9/  9   N/A
JEFFREYS LEDGE   1703      54                N/A     2/ 8
CASHES LEDGE BUO 1750   54 52                N/A     2/ 8
GEORGES BANK BUO 1750   58 54  220/  8/  8   N/A     3/ 8
$$

.............KEY..............
   WCI - WIND CHILL
   TC  - TEMPERATURE IN CELSIUS
   VSB - VISIBILITY IN MILES
   HX  - HEAT INDEX
   FAIR- INDICATES FEW OR NO CLOUDS BELOW 12,000 FT, WITH NO
         SIGNIFICANT WEATHER AND/OR OBSTRUCTIONS TO VISIBILITY.




USA.gov is the U.S. government's official web portal to all federal, state and local government web resources and services.